Vero Beach, FL

7:31 PM EST on February 07, 2016 (GMT -0500)
Vero Beach Municipal

Weather History for KVRB - January, 2014

Change the Weather History Date:

Wednesday, January 1, 2014

  Actual Average Record
Temperature  
Mean Temperature 70 °F 62 °F  
Max Temperature 73 °F 72 °F 84 °F (1989)
Min Temperature 66 °F 52 °F 30 °F (2001)
Degree Days  
Heating Degree Days 0 5  
Month to date heating degree days 0 5  
Since 1 July heating degree days 29 140  
Cooling Degree Days 5 2  
Month to date cooling degree days 5 2  
Year to date cooling degree days 5 2  
Growing Degree Days 19 (Base 50)    
Moisture  
Dew Point 68 °F    
Average Humidity 84    
Maximum Humidity 100    
Minimum Humidity 68    
Precipitation  
Precipitation 0.65 in 0.09 in 2.81 in (1993)
Month to date precipitation 0.65 0.09  
Year to date precipitation 0.65 0.09  
Sea Level Pressure  
Sea Level Pressure 30.15 in    
Wind  
Wind Speed 6 mph (NE)    
Max Wind Speed 14 mph    
Max Gust Speed 20 mph    
Visibility 6 miles    
Events Fog , Rain    
T = Trace of Precipitation, MM = Missing Value Source: NWS Daily Summary

Daily Weather History Graph

Daily Weather History Graph

Search for Another Location

Airport or City:

Trip Planner

Search our weather history database for the weather conditions in past years. The results will help you decide how hot, cold, wet, or windy it might be!

Date:

Astronomy

Jan. 01, 2014 Rise Set
Actual Time 7:12 AM EST 5:38 PM EST
Civil Twilight 6:46 AM EST 6:03 PM EST
Nautical Twilight 6:17 AM EST 6:33 PM EST
Astronomical Twilight 5:49 AM EST 7:01 PM EST
Moon 7:06 AM EST (1/1) 6:14 PM EST (1/1)
Length of Visible Light 11h 17m
Length of Day
10h 25m
New Moon, 0% of the Moon is Illuminated
Jan 1
New Moon
Jan 7
First Quarter
Jan 15
Full
Jan 24
Last Quarter
Jan 30
New

Hourly Weather History & Observations

Time (EST) Temp. Dew Point Humidity Pressure Visibility Wind Dir Wind Speed Gust Speed Precip Events Conditions
12:53 AM 71.1 °F 61.0 °F 70% 30.22 in 10.0 mi East 11.5 mph - N/A   Mostly Cloudy
1:53 AM 71.1 °F 62.1 °F 73% 30.21 in 10.0 mi East 9.2 mph - N/A   Scattered Clouds
2:53 AM 72.0 °F 63.0 °F 73% 30.21 in 10.0 mi East 9.2 mph - N/A   Overcast
3:53 AM 72.0 °F 64.0 °F 76% 30.20 in 10.0 mi East 8.1 mph - N/A   Overcast
4:53 AM 72.0 °F 64.0 °F 76% 30.19 in 10.0 mi ENE 6.9 mph - N/A   Overcast
5:53 AM 71.1 °F 64.9 °F 81% 30.20 in 9.0 mi East 8.1 mph - 0.00 in Rain Light Rain
6:15 AM 69.8 °F 66.2 °F 88% 30.20 in 6.0 mi ENE 9.2 mph - 0.01 in Rain Light Rain
6:24 AM 69.8 °F 66.2 °F 88% 30.21 in 7.0 mi ENE 6.9 mph - 0.01 in   Overcast
6:31 AM 68.0 °F 66.2 °F 94% 30.21 in 7.0 mi ENE 5.8 mph - 0.01 in   Overcast
6:53 AM 68.0 °F 66.9 °F 96% 30.21 in 4.0 mi East 6.9 mph - 0.01 in Rain Light Rain
7:49 AM 69.8 °F 68.0 °F 94% 30.23 in 9.0 mi ENE 8.1 mph - 0.01 in   Overcast
7:53 AM 69.1 °F 68.0 °F 96% 30.22 in 10.0 mi ENE 8.1 mph - 0.01 in   Overcast
8:03 AM 69.8 °F 68.0 °F 94% 30.23 in 7.0 mi ENE 6.9 mph - 0.00 in Rain Light Rain
8:10 AM 69.8 °F 68.0 °F 94% 30.23 in 2.0 mi ENE 6.9 mph - 0.01 in Rain Light Rain
8:17 AM 69.8 °F 68.0 °F 94% 30.24 in 2.0 mi ENE 5.8 mph - 0.01 in Rain Light Rain
8:32 AM 69.8 °F 69.8 °F 100% 30.23 in 2.0 mi East 8.1 mph - 0.02 in Rain Light Rain
8:53 AM 69.1 °F 69.1 °F 100% 30.23 in 2.0 mi East 5.8 mph - 0.02 in   Overcast
9:53 AM 68.0 °F 68.0 °F 100% 30.24 in 2.0 mi ENE 5.8 mph - 0.02 in   Overcast
10:00 AM 68.0 °F 68.0 °F 100% 30.24 in 2.0 mi ENE 6.9 mph - N/A   Overcast
10:53 AM 69.1 °F 69.1 °F 100% 30.22 in 2.0 mi NE 6.9 mph - 0.00 in   Overcast
11:00 AM 69.8 °F 69.8 °F 100% 30.22 in 7.0 mi NE 5.8 mph - N/A   Overcast
11:53 AM 71.1 °F 70.0 °F 96% 30.19 in 10.0 mi ENE 9.2 mph - N/A   Overcast
12:34 PM 71.6 °F 69.8 °F 94% 30.17 in 2.0 mi ENE 6.9 mph - 0.04 in Rain Heavy Rain
12:53 PM 70.0 °F 70.0 °F 100% 30.16 in 2.0 mi WNW 12.7 mph - 0.26 in Rain Light Rain
1:00 PM 69.8 °F 69.8 °F 100% 30.16 in 4.0 mi NW 8.1 mph - 0.05 in Rain Light Rain
1:53 PM 71.1 °F 70.0 °F 96% 30.13 in 7.0 mi ENE 8.1 mph - 0.14 in Rain Light Rain
2:53 PM 72.0 °F 71.1 °F 97% 30.11 in 10.0 mi East 9.2 mph - 0.02 in   Overcast
3:00 PM 71.6 °F 71.6 °F 100% 30.11 in 10.0 mi North - - N/A   Overcast
3:09 PM 71.6 °F 71.6 °F 100% 30.11 in 10.0 mi East 9.2 mph - N/A   Overcast
3:43 PM 71.6 °F 71.6 °F 100% 30.11 in 10.0 mi East 8.1 mph - 0.00 in   Overcast
3:53 PM 72.0 °F 71.1 °F 97% 30.11 in 3.0 mi East 8.1 mph - 0.00 in Rain Light Rain
3:58 PM 71.6 °F 71.6 °F 100% 30.11 in 2.5 mi East 5.8 mph - 0.01 in Rain Rain
4:53 PM 72.0 °F 72.0 °F 100% 30.10 in 2.5 mi ENE 3.5 mph - 0.12 in Rain Rain
4:56 PM 71.6 °F 71.6 °F 100% 30.10 in 2.0 mi NNE 4.6 mph - 0.01 in Rain Rain
5:21 PM 71.6 °F 71.6 °F 100% 30.11 in 8.0 mi Calm Calm - 0.05 in   Overcast
5:53 PM 71.1 °F 71.1 °F 100% 30.10 in 8.0 mi Calm Calm - 0.05 in   Mostly Cloudy
5:56 PM 71.6 °F 71.6 °F 100% 30.10 in 9.0 mi NE 3.5 mph - N/A   Overcast
6:53 PM 70.0 °F 70.0 °F 100% 30.10 in 7.0 mi North 4.6 mph - N/A   Mostly Cloudy
7:00 PM 69.8 °F 69.8 °F 100% 30.10 in 8.0 mi North 4.6 mph - N/A   Overcast
7:09 PM 69.8 °F 69.8 °F 100% 30.10 in 8.0 mi North 3.5 mph - N/A   Overcast
7:43 PM 69.8 °F 69.8 °F 100% 30.10 in 8.0 mi North 6.9 mph - N/A   Mostly Cloudy
7:53 PM 70.0 °F 70.0 °F 100% 30.10 in 8.0 mi North 8.1 mph - N/A   Overcast
8:07 PM 69.8 °F 69.8 °F 100% 30.10 in 10.0 mi North 4.6 mph - N/A   Overcast
8:18 PM 69.8 °F 69.8 °F 100% 30.10 in 9.0 mi North 4.6 mph - N/A   Overcast
8:20 PM 69.8 °F 69.8 °F 100% 30.10 in 9.0 mi North 4.6 mph - N/A   Overcast
8:29 PM 69.8 °F 69.8 °F 100% 30.10 in 9.0 mi North 5.8 mph - N/A   Overcast
8:53 PM 68.0 °F 68.0 °F 100% 30.10 in 9.0 mi Calm Calm - N/A   Overcast
9:53 PM 68.0 °F 68.0 °F 100% 30.09 in 9.0 mi NNW 3.5 mph - N/A   Overcast
10:25 PM 68.0 °F 68.0 °F 100% 30.09 in 8.0 mi Calm Calm - N/A   Overcast
10:53 PM 68.0 °F 68.0 °F 100% 30.08 in 4.0 mi Calm Calm - N/A   Overcast
11:05 PM 66.2 °F 66.2 °F 100% 30.08 in 8.0 mi Calm Calm - N/A   Overcast
11:12 PM 66.2 °F 66.2 °F 100% 30.08 in 4.0 mi Calm Calm - N/A   Overcast
11:15 PM 66.2 °F 66.2 °F 100% 30.07 in 1.5 mi Calm Calm - N/A   Overcast
11:24 PM 66.2 °F 66.2 °F 100% 30.07 in 0.5 mi Calm Calm - N/A Fog Fog
11:37 PM 66.2 °F 66.2 °F 100% 30.07 in 0.2 mi Calm Calm - N/A Fog Fog
11:53 PM 66.9 °F 66.9 °F 100% 30.06 in 0.2 mi Calm Calm - N/A Fog Fog